Flag for Germany Weather past 2 weeks in Gladbeck, North Rhine-Westphalia, Germany

Now
54 °F

Passing clouds.


Feels Like: 54 °F
Forecast: 48 / 73 °F
Wind: 1 mph from East

Location: Duesseldorf


UV Index: 3 (Moderate)

Visibility: 28 mi


Pressure: 30.12 "Hg

Humidity: 81%

Dew point: 48 °F

Location of GladbeckLocation

Historic Weather in Gladbeck

°F

Gladbeck temperature yesterday

Maximum temperature yesterday: 70 °F (at 6:00 PM)
Minimum temperature yesterday: 45 °F (at 6:00 AM)
Average temperature yesterday: 58 °F

Past Weeks' High & Low Weather Summary

 TemperatureHumidityPressure
High72 °F (Apr 20, 2:00 PM)97% (Apr 12, 8:00 AM)30.47 "Hg (Apr 12, 8:00 AM)
Low30 °F (Apr 16, 5:00 AM)26% (Apr 17, 5:00 PM)29.64 "Hg (Apr 21, 6:00 PM)
Average52 °F66%30.06 "Hg
* Reported Midnight between Apr 8 and Apr 9 — Midnight between Apr 23 and Apr 24, Gladbeck, Weather by CustomWeather, © 2014

Note: Actual official high and low records may vary slightly from our data, if they occured in-between our weather recording intervals... More about our weather records

Advertising

Historic Weather Conditions — Data for Previous 24 hours

 ConditionsComfort  
Time TempWeatherWind HumidityBarometerVisibility
12:00 AM
Apr 24
53 °FPassing clouds.3 mph82%30.11 "Hg28 mi
10:00 PM
Apr 23
56 °FPassing clouds.3 mph74%30.11 "Hg25 mi
9:00 PM61 °FPassing clouds.3 mph64%30.10 "Hg17 mi
8:00 PM66 °FScattered clouds.2 mph49%30.07 "Hg19 mi
7:00 PM70 °FPassing clouds.1 mph33%30.06 "Hg22 mi
6:00 PM70 °FPassing clouds.1 mph35%30.07 "Hg22 mi
5:00 PM70 °FPassing clouds.2 mph38%30.07 "Hg22 mi
4:00 PM70 °FScattered clouds.3 mph40%30.08 "Hg22 mi
3:00 PM69 °FScattered clouds.3 mph40%30.09 "Hg19 mi
2:00 PM67 °FPassing clouds.1 mph45%30.10 "Hg17 mi
1:00 PM65 °FPassing clouds.2 mph50%30.11 "Hg14 mi
12:00 PM64 °FScattered clouds.2 mph57%30.12 "Hg12 mi
11:00 AM61 °FPartly sunny.2 mph63%30.12 "Hg12 mi
10:00 AM57 °FPartly sunny.3 mph74%30.11 "Hg12 mi
9:00 AM54 °FPartly sunny.2 mph81%30.10 "Hg12 mi
8:00 AM51 °FPartly sunny.1 mph88%30.09 "Hg12 mi
7:00 AM46 °FScattered clouds.2 mph95%30.09 "Hg12 mi
6:00 AM45 °FFog.1 mph94%30.07 "Hg19 mi
5:00 AM46 °FFog.1 mph92%30.06 "Hg25 mi
4:00 AM47 °FFog.1 mph91%30.06 "Hg25 mi
3:00 AM50 °FPassing clouds.1 mph89%30.04 "Hg25 mi
2:00 AM51 °FOvercast.1 mph86%30.04 "Hg25 mi
1:00 AM52 °FOvercast.1 mph82%30.03 "Hg25 mi
Weather by CustomWeather, © 2014

See weather overview